SkyRhune

Class.NomPrénomSexeCatTempsVitesse
1MAGNINIDavideMES01:53:4511,08 km/h
2ZAGODidierMV101:58:5910,59 km/h
3ALCALDEAntonioMSE02:02:0510,32 km/h
4BORGIALLIRicardoMSE02:02:3810,27 km/h
5BARONIANThibautMSE02:03:3710,19 km/h
6MICHELONJulienMES02:04:3610,11 km/h
7BURGOS GÓMEZNoelMSE02:05:0710,07 km/h
8ROBERTLoicMES02:07:159,9 km/h
9BONINArnaudMSE02:08:069,84 km/h
10GALANDBenoitMSE02:08:239,81 km/h
11GOSSELINSimonMSE02:09:009,77 km/h
12DUHAILNicolasMSE02:10:099,68 km/h
13MARTINEZPierreMES02:10:149,67 km/h
14L'HIRONDELBlandineFSE02:12:089,54 km/h
15TRASERAMarcMES02:12:349,5 km/h
16MACIAS CIPRIAINXabierMSE02:12:519,48 km/h
17RAISSACQuentinMSE02:13:249,45 km/h
18AMUNARRIZJoxeMSE02:13:319,44 km/h
19FLEURYBastienMSE02:13:329,44 km/h
20BOUVIER GAZNicolasMSE02:14:169,38 km/h
21BASSONSChristopheMV102:14:469,35 km/h
22LEVOYGuillaumeMSE02:15:099,32 km/h
23LÓPEZ DE SAGREDOFernandoMSE02:17:109,19 km/h
24BAREA PASTORFco. JavierMSE02:18:129,12 km/h
25ELLMENREICHBaptisteMES02:18:229,11 km/h
26FELBERAnthonyMES02:18:239,11 km/h
27MONDOTYannMV102:18:429,08 km/h
28JANKévinMSE02:20:308,97 km/h
29PRIGENTSimonMSE02:20:378,96 km/h
30APEZETXEAAsierMSE02:20:478,95 km/h
31OURTHIAGUEBettiMSE02:20:578,94 km/h
32NABIASFabienMSE02:21:008,94 km/h
33GAILLOTNicolasMES02:21:028,93 km/h
34TECHENESamuelMV102:21:098,93 km/h
35LADAURADEBastienMSE02:21:288,91 km/h
36JUILLAGUETWillMSE02:21:488,89 km/h
37CAMALETDanielMSE02:22:358,84 km/h
38BELLAMYBenjaminMSE02:23:208,79 km/h
39THEVINLoïcMSE02:24:378,71 km/h
40LEROYThibaultMSE02:24:408,71 km/h
41SANCHEZThéoMES02:24:528,7 km/h
42BECKERFlorianMSE02:24:588,69 km/h
43HIJAZISamirMSE02:25:278,66 km/h
44KORTAZAR ARANZETAOihanaFSE02:25:408,65 km/h
45SADDIERAntoineMSE02:26:078,62 km/h
46DESDOUETSJeremyMSE02:26:468,59 km/h
47SOULIEREmericMSE02:27:188,55 km/h
48LAUGIEREricMV102:27:298,54 km/h
49CAVALCAStéphaneMV102:27:358,54 km/h
50DESJARDINSJulienMSE02:28:008,51 km/h
51GALANTBaptisteMSE02:28:058,51 km/h
52BRUNETJULIENMSE02:28:108,5 km/h
53SERVANTNadegeFSE02:28:158,5 km/h
54POCHATGedeonMSE02:28:188,5 km/h
55TRILLESBastienMSE02:28:218,49 km/h
56GERMAINLucilleFES02:28:368,48 km/h
57FERRATOAmandineFSE02:28:488,47 km/h
58BUCCINicolaMSE02:28:498,47 km/h
59DOSSARDPRESSEM-02:29:078,45 km/h
60MAIRYFlorianMSE02:29:168,44 km/h
61GERARDSimonMSE02:29:528,41 km/h
62GHIRARDFlorentMSE02:29:548,41 km/h
63BILLERACHJulienMSE02:29:548,41 km/h
64KOCHSebastienMV102:29:578,4 km/h
65SANCHEZGeoffreyMSE02:30:078,39 km/h
66RICHARDAlexandreMV102:30:148,39 km/h
67BORIEPierreMSE02:30:178,38 km/h
68LOUSTAUVincentMSE02:30:478,36 km/h
69HECKMANVictorMSE02:30:488,36 km/h
70PAHOSAndreasMSE02:30:508,35 km/h
71INDABURUXabiMSE02:31:498,3 km/h
72ESCLAMADONMikelMSE02:32:398,25 km/h
73HOLLIGERBenjaminMSE02:32:408,25 km/h
74HUILLETStéphaneMV102:32:538,24 km/h
75COMBARIEUMaudFV102:33:098,23 km/h
76HARGUINDEGUYAnttonMSE02:33:108,23 km/h
77LECLERCQMathieuMSE02:33:158,22 km/h
78TAILLEBRESSEGuillaumeMSE02:33:378,2 km/h
79PAIROYSThomasMSE02:33:418,2 km/h
80BORES SAINZ DE VICUÑAJavierMV102:33:458,2 km/h
81BESSONPierre-JeanMSE02:34:058,18 km/h
82CHASSAGNEBaptisteMSE02:34:208,16 km/h
83TAVANPierrickMSE02:34:538,14 km/h
84CAMACHOJulienMSE02:34:548,13 km/h
85SAN MARTINDamienMES02:34:558,13 km/h
86BONNECARRÈREGautierMSE02:34:578,13 km/h
87CAMPOBriceMSE02:35:018,13 km/h
88DOULSBenoitMSE02:35:058,12 km/h
89MERCIERGuillaumeMSE02:35:108,12 km/h
90MOUCHAGUEPascalMV202:35:118,12 km/h
91PAGNUCCOLeoMSE02:35:168,12 km/h
92CASTANHEIRAChristopheMV102:35:328,1 km/h
93DUHARTMikaelMSE02:35:518,08 km/h
94INCONNUInconnuMV102:36:248,06 km/h
95VILLEGASSergioMV102:36:288,05 km/h
96VAQUEROChristopherMSE02:37:148,01 km/h
97MIHURAGabrielMSE02:37:158,01 km/h
98NESPRIASDavidMSE02:37:168,01 km/h
99FALCOJeremyMSE02:37:188,01 km/h
100CAPUSSébastienMSE02:37:278 km/h
101GACHENRomainMSE02:37:437,99 km/h
102RIAAlexMSE02:37:487,98 km/h
103ANGLADERomainMSE02:37:527,98 km/h
104MANAUTThibaudMSE02:37:547,98 km/h
105ENNEBECKThierryMV202:37:587,98 km/h
106ETCHEGARAYEricMSE02:38:097,97 km/h
107MAHEChristianMV202:38:127,96 km/h
108GEOFFROYCharlesMSE02:38:407,94 km/h
109IMPARATODamienMSE02:39:227,91 km/h
110VICENTETiagoMSE02:39:287,9 km/h
111RIVESMartialMSE02:39:297,9 km/h
112PIERSONLucMSE02:39:387,89 km/h
113DALMASSOChristopheMV202:40:317,85 km/h
114LARROQUEManuMSE02:41:037,82 km/h
115MAIRALJulienMSE02:41:297,8 km/h
116IRATZOQUYPaulMSE02:41:307,8 km/h
117BUGUELLOUVincentMSE02:42:127,77 km/h
118SENTOSTBenoitMV102:42:167,76 km/h
119LOUPSJérômeMV102:42:207,76 km/h
120PUYOCédricMSE02:43:137,72 km/h
121VIGNOTLauraFSE02:43:187,72 km/h
122TOULZEAnthonyMSE02:43:547,69 km/h
123TIDBALLCharlesMV102:43:557,69 km/h
124LANGONXavierMV102:44:097,68 km/h
125ELISSAGARAYYonMSE02:44:287,66 km/h
126HOURDEBAIGTSMAXIMEMSE02:44:377,65 km/h
127SOUBIECyrilMV102:45:007,64 km/h
128LAGOKévinMSE02:45:087,63 km/h
129BILBAO ARRIENIbonMSE02:45:377,61 km/h
130VIENNEAugustinMSE02:45:397,61 km/h
131ETCHEVERRYJean MichelMSE02:46:127,58 km/h
132ROIGLoicFSE02:46:287,57 km/h
133LAMBERTMaximeMSE02:46:437,56 km/h
134VANTARDPierrickMSE02:47:007,54 km/h
135IBARBURUBrunoMSE02:49:077,45 km/h
136LAHORGUENicolasMSE02:49:107,45 km/h
137MARTINValdineFSE02:49:147,45 km/h
138SUSSENBACHYannMSE02:49:197,44 km/h
139ALIKSimonMSE02:49:397,43 km/h
140DUMONTLaurentMSE02:49:487,42 km/h
141EDERTristanMSE02:50:167,4 km/h
142CANAUDAndreaFV102:50:207,4 km/h
143LAFFAILLEDenisMV102:50:277,39 km/h
144GARCIAJonathanMSE02:50:377,38 km/h
145CORONMatthieuMES02:50:547,37 km/h
146QUAIREAUClémentMSE02:50:577,37 km/h
147BAHEGNEOlivierMSE02:51:547,33 km/h
148COURDÈSJulienMSE02:51:567,33 km/h
149MIHALCEAOanaFSE02:52:027,32 km/h
150PRINCENicolasMSE02:52:427,3 km/h
151BERNATMickaelMSE02:52:487,29 km/h
152DA COSTA VALEHeleneFV102:53:447,25 km/h
153NOBLETEricMSE02:53:527,25 km/h
154DEUILLARDQuentinMSE02:54:057,24 km/h
155BISOTTOJean LaurentMV102:54:117,23 km/h
156CORTIJO IDOYAGAAitzolMSE02:54:137,23 km/h
157EYMERYMathieuMSE02:54:387,22 km/h
158POURTAUMathieuMSE02:55:017,2 km/h
159FORERO SUÁREZChristianMSE02:55:427,17 km/h
160CASTAÑARES ZORROZUAArkaitzMSE02:55:527,16 km/h
161BOURSIERLilianMSE02:56:117,15 km/h
162CARRERE DIT COUSTIEAudreyFSE02:56:247,14 km/h
163CHEVALIERCorentinMSE02:56:417,13 km/h
164GLADStephaneMV202:56:437,13 km/h
165PEREZ MONCHOAidaFSE02:56:527,12 km/h
166RABATJean-NoëlMSE02:57:157,11 km/h
167BOUTINEmericMSE02:57:547,08 km/h
168SANSONKarineFV102:58:047,08 km/h
169BERUJONClémentMV102:58:097,07 km/h
170MAIRYThierryMV102:58:137,07 km/h
171LARRALDEBrunoMSE02:58:137,07 km/h
172BONNETBastienMSE02:59:197,03 km/h
173MARTINSebastienMV102:59:227,02 km/h
174MARQUEJulienMSE02:59:247,02 km/h
175PUJOLThomasMV102:59:247,02 km/h
176ORRETEGUYDamienMSE03:00:236,99 km/h
177GIRETSylvainMSE03:00:596,96 km/h
178BLANCOBeñatMSE03:01:406,94 km/h
179LARRONDEMichelMV203:01:456,93 km/h
180LABEGUERIEDidierMV203:01:526,93 km/h
181DONNADIEUJulienMSE03:01:536,93 km/h
182DEVILLE CAVELLINMatthieuMSE03:01:566,93 km/h
183REGINAJérômeMSE03:01:576,92 km/h
184BRUMEAUXMartinMV103:02:206,91 km/h
185BECHATJean-françoisMSE03:02:216,91 km/h
186BOUSQUETGaelMSE03:03:066,88 km/h
187CARREREJEAN-CLAUDEMV203:03:136,88 km/h
188ETCHARTKayetMSE03:03:416,86 km/h
189GAZAUBEPatriceMSE03:04:006,85 km/h
190ROUSSIEPierreMV103:04:276,83 km/h
191ORONOZMattinMSE03:04:316,83 km/h
192ORTIZFrançoisMV103:04:406,82 km/h
193ESTANGUETLaëtitiaFV103:04:476,82 km/h
194RIGAUDJulienMV103:05:326,79 km/h
195GARATChristopheMV203:05:376,79 km/h
196JAMETNicolasMV103:05:496,78 km/h
197LEROUXAnthonyMSE03:05:546,78 km/h
198DERNISCharlotteFSE03:06:026,77 km/h
199MICHEBenoitMSE03:06:306,76 km/h
200NENCISteveMV103:06:336,75 km/h
201LAPÈGUENicolasMSE03:07:146,73 km/h
202BIAUStephaneMSE03:07:166,73 km/h
203SAN ROMAN FULDAINLanderMSE03:07:176,73 km/h
204CARONJean-ChristopheMV203:07:186,73 km/h
205MARINACCEPierreMSE03:07:196,73 km/h
206BISCAYFrédéricMV103:07:376,72 km/h
207CRIADOGuillaumeMSE03:07:466,71 km/h
208EL WAHIDINabilMSE03:08:026,7 km/h
209DEFAUXArnaudMSE03:08:196,69 km/h
210BEROTRemiMSE03:08:336,68 km/h
211LAJAUNIE-SALLAKatixaFSE03:08:536,67 km/h
212BERINGUES BRUNETMariaFES03:08:546,67 km/h
213DURANDBaptisteMV103:09:166,66 km/h
214MARIANILaurieFSE03:09:346,65 km/h
215AJA MUNOZMaximeMSE03:09:356,65 km/h
216MATTHIEURobinMSE03:09:396,64 km/h
217JAVERZACLaurentMV103:09:406,64 km/h
218TONINClaraFSE03:10:006,63 km/h
219SOMSONJean-PierreMV303:10:086,63 km/h
220ADAMBenabdallahMES03:10:226,62 km/h
221SAPINHODavidMV103:10:276,62 km/h
222ALQUIERMagaliFV103:10:526,6 km/h
223LAGRAULAFrancoisMV103:10:536,6 km/h
224BOUDIERLaurentMV103:11:216,58 km/h
225PESSEGUEJean laurentMV103:12:076,56 km/h
226CASETCédricMSE03:12:176,55 km/h
227MESMACQUE-CHAUBADINDEGUYBaptisteMES03:12:386,54 km/h
228BUCKNicolasMV103:12:406,54 km/h
229CAUBETPhilippeMV203:12:526,53 km/h
230ROMUALDMauduitMV103:13:156,52 km/h
231FLECHOUXBastienMSE03:13:196,52 km/h
232RENUCCIFlorianMSE03:13:256,51 km/h
233GOIKOETXEA MAYORGorkaMSE03:13:406,51 km/h
234ADAMDAVIDMV103:13:596,5 km/h
235BETTEVirginieFV103:13:596,5 km/h
236KERVIZICKevinMSE03:14:146,49 km/h
237TOUYAROUTiphaineFSE03:14:396,47 km/h
238DA MOTAJulienMSE03:14:406,47 km/h
239CLOUETBorisMSE03:15:046,46 km/h
240MOLINEROAlexanderMSE03:15:076,46 km/h
241PEBAYGillesMV103:15:116,46 km/h
242ALLANCHEPaulMSE03:15:136,45 km/h
243CASTAGNETAnthonyMSE03:15:186,45 km/h
244POULINÉricMV203:15:276,45 km/h
245COURADETBenjaminMSE03:15:396,44 km/h
246PIGNOLGhislainMV103:15:526,43 km/h
247AUBERTBrunoMSE03:16:146,42 km/h
248ISERENTANTJulesMSE03:16:236,42 km/h
249PONZEVERAJulienMSE03:16:336,41 km/h
250CACHETNadjaFSE03:16:336,41 km/h
251BERNARDINIGuyMSE03:16:346,41 km/h
252DOILLETXabiMES03:16:436,41 km/h
253MOUTINHO DE CARVALHOCasimiroMV203:16:476,4 km/h
254LARROQUETFabienMSE03:16:546,4 km/h
255HOUARIBenjaminMSE03:17:216,38 km/h
256KLEINJeremieMSE03:17:436,37 km/h
257ALMEIDALouisMV103:17:446,37 km/h
258LE BRASYannMV103:18:066,36 km/h
259RUFASTVincentMSE03:18:256,35 km/h
260GONZALESStephaneMV103:18:486,34 km/h
261MERCIERCedricMSE03:18:526,34 km/h
262OROZMikelMSE03:18:536,34 km/h
263LAGOINCyrilMSE03:19:066,33 km/h
264BUISSONEliottMSE03:19:176,32 km/h
265LAFONDAlbanMSE03:19:176,32 km/h
266RAISINArnaudMSE03:19:386,31 km/h
267ESCALOINDenisMV103:19:436,31 km/h
268POLETTIJean-ThomasMV103:19:476,31 km/h
269ESPILFranckMSE03:19:546,3 km/h
270GAUTHERONDavidMV103:20:126,29 km/h
271CHICHEGrégoireMSE03:20:146,29 km/h
272SAINCETAxelMSE03:20:186,29 km/h
273GUILLOTINFranckMV203:20:276,29 km/h
274LATASTELudovicMV103:20:296,28 km/h
275CORROYERLaurentMV103:20:306,28 km/h
276DEVISSEArnaudMSE03:20:456,28 km/h
277LEBOEUFDavidMV103:20:486,27 km/h
278GUTIÉRREZCamiloMSE03:20:596,27 km/h
279CORONNicolasMES03:21:056,27 km/h
280BALSASLucasMSE03:21:066,27 km/h
281MERCADALSergeMV203:21:186,26 km/h
282GOUSSETJonathanMSE03:21:266,26 km/h
283CENDERENTMichelMV203:21:396,25 km/h
284MÉLOTCyrilMV103:21:406,25 km/h
285SALLANPascalMV203:21:476,24 km/h
286JEREMYAudrezetMSE03:21:476,24 km/h
287MADRIGALDanielMV103:21:546,24 km/h
288PEREIRAMathieuMSE03:22:086,23 km/h
289SUVITYASIRIStéphaneMSE03:22:156,23 km/h
290COQUINKarineFV103:22:356,22 km/h
291MAUBECArnaudMSE03:23:026,21 km/h
292NAELJeremyMSE03:23:056,2 km/h
293JAULINOlivierMSE03:23:306,19 km/h
294PROUSTPHILIPPEMSE03:24:176,17 km/h
295AMEZTOYDidierMV203:25:056,14 km/h
296DRAMARDJean FrançoisMV203:25:116,14 km/h
297TONINICédricMV103:25:146,14 km/h
298LUSSIERTonyMSE03:25:216,14 km/h
299FAYClementMSE03:25:226,14 km/h
300MARTYFabienMSE03:25:226,14 km/h
301HANDYSolangeFV203:25:236,13 km/h
302CERRISBrunoMV103:25:356,13 km/h
303POUFFETAymericMV103:25:356,13 km/h
304BOUCHERIEJean-renéMSE03:25:386,13 km/h
305CORBINEAUPierreMSE03:25:396,13 km/h
306DEGUILEricMSE03:25:516,12 km/h
307RODRIGUESEmilieFSE03:26:076,11 km/h
308MORETAntoineMSE03:26:116,11 km/h
309BRARDMathieuMSE03:26:186,11 km/h
310SEILLERYannMSE03:26:246,1 km/h
311MARCOJean-BaptisteMSE03:26:396,1 km/h
312GAUDERATAlienorFSE03:26:536,09 km/h
313BESCOSCedricMSE03:26:566,09 km/h
314CAMOU JUNCASJEAN LUCMV203:26:596,09 km/h
315DULHOSTEFredericMV203:27:066,08 km/h
316DOUSSAUDFrancoisMSE03:27:156,08 km/h
317LAFOURCADEGaelMV103:27:566,06 km/h
318CHIAROTTOClementMSE03:28:126,05 km/h
319GIOVANNANGELIVincentMSE03:28:416,04 km/h
320LAGREOUPaulMSE03:28:546,03 km/h
321BOUVIERAurelienMSE03:29:136,02 km/h
322CORNARDEAUThomasMSE03:29:356,01 km/h
323BURELDidierMV103:29:386,01 km/h
324VINCENTYoannMV103:29:576 km/h
325ORTIGOSA-LIAZIsabelleFSE03:30:235,99 km/h
326SMOUCOVITIsabelleFSE03:30:265,99 km/h
327LAVIEEricMV103:30:575,97 km/h
328MAGNIERQuentinMSE03:31:375,95 km/h
329RONGIERCharlesMV303:32:015,94 km/h
330DUCOURNAUPierreMV203:32:225,93 km/h
331ENGOULEVENTLudovicMV103:32:475,92 km/h
332PINAUDGuillaumeMSE03:32:495,92 km/h
333BERNETEAUDanMV103:33:155,91 km/h
334CHIARIRonanMSE03:33:485,89 km/h
335CHAGHILDrissMV103:33:505,89 km/h
336GESTLaurentMSE03:34:005,89 km/h
337RUPPPaul-AntoineMV203:34:105,88 km/h
338PAÏSBastienMES03:34:195,88 km/h
339COUVREURVeroniqueFSE03:34:575,86 km/h
340PROSTLionelMSE03:34:585,86 km/h
341POSERFreddyMV203:34:595,86 km/h
342SALLABERRYPhilippeMSE03:35:005,86 km/h
343SAURINERaymondMV103:35:095,86 km/h
344LISTOlivierMSE03:35:515,84 km/h
345JAURETCHEPatrickMV103:36:345,82 km/h
346LUBERRIAGAPhilippeMV103:36:565,81 km/h
347PAPETClementMSE03:37:135,8 km/h
348CATANIJulienMSE03:38:085,78 km/h
349SOCASAUPierreMSE03:38:185,77 km/h
350BASQUEFredericMV103:39:045,75 km/h
351TALLECMyriamFV103:39:125,75 km/h
352BAUPJean lucMV103:39:365,74 km/h
353DUFRÉCHOUAlainMV203:40:405,71 km/h
354OBRINGERRémiMSE03:40:575,7 km/h
355LAURETVincentMSE03:41:025,7 km/h
356IRIMIACédricMV103:42:045,67 km/h
357MALRIEUCédricMV103:42:165,67 km/h
358BENGOCHEAAdrienMSE03:42:325,66 km/h
359PEREZJulienFV103:43:005,65 km/h
360KULPADenisMV203:43:065,65 km/h
361HAMONSylvainMSE03:43:105,65 km/h
362TAPPAROBenoîtMV103:43:105,65 km/h
363BARBARAFannyFSE03:43:535,63 km/h
364JORROJulienMSE03:43:535,63 km/h
365CASTANERAJeremyMSE03:43:545,63 km/h
366GALLEGOElodieFSE03:44:175,62 km/h
367ARRUTIPantxuaMV103:44:255,61 km/h
368JAMMESLucasMSE03:44:305,61 km/h
369GIROUVincentMV103:44:305,61 km/h
370MICAELLIJean-PhilippeMSE03:45:085,6 km/h
371FERRIJosephMV103:45:095,6 km/h
372MALOLaurentMV103:45:235,59 km/h
373SAÜTVincentMV103:45:255,59 km/h
374TULLEBastienMV103:45:255,59 km/h
375ETCHEVERRYLaurentMV103:45:455,58 km/h
376LAPIERRELoïcMV103:45:505,58 km/h
377MERLERThierryMV203:45:535,58 km/h
378DIRASSARJean MixelMV203:46:155,57 km/h
379GOYERRemyMSE03:46:155,57 km/h
380PIRIOUJulieFSE03:47:105,55 km/h
381RAVIGNONAxelMSE03:48:085,52 km/h
382MOUILLET-CHAUDETCarloMV103:48:105,52 km/h
383TARIGregoireMV103:48:435,51 km/h
384ORGOGOZOPhilippeMV203:48:475,51 km/h
385DUMASJeremyMSE03:48:575,5 km/h
386OLIVEIRAChristopheMV103:49:015,5 km/h
387DECAYEUXPhilippeMV103:49:135,5 km/h
388FRANCOISKevinMSE03:49:235,49 km/h
389BARRITAUDBastienMSE03:49:315,49 km/h
390CORIAntoineMSE03:50:135,47 km/h
391LABOURETJulienMSE03:50:135,47 km/h
392LEROUGEJocelynMSE03:50:445,46 km/h
393CROSFrancoiseFV203:51:025,45 km/h
394SARRANEricMV103:51:055,45 km/h
395CHOUCROUNAlexisMV103:51:295,44 km/h
396MASSAUXAurelienMSE03:51:395,44 km/h
397APARICIO VALLERicardoMSE03:52:065,43 km/h
398KERSTENRUDYMSE03:52:245,42 km/h
399LATRILLENicolasMV103:53:095,4 km/h
400FOURNEAUPhilippeMSE03:53:135,4 km/h
401HODENCQSebastienMSE03:53:225,4 km/h
402BOIROUXEricMV103:53:415,39 km/h
403RIDEAUEmilieFSE03:54:035,38 km/h
404CABROLAnne-LaureFSE03:54:125,38 km/h
405CARRALOUPhilippeMV203:54:155,38 km/h
406LEBOEUFKevinMSE03:54:155,38 km/h
407PEIXOTOPaulMSE03:54:155,38 km/h
408DUNACMatthiasMSE03:54:305,37 km/h
409MEYNIEUPierre EmmanuelMSE03:54:375,37 km/h
410ETCHEVERSRENéMV103:54:515,37 km/h
411BOURBONNAISStephaneMSE03:54:525,36 km/h
412BRIDOUXMikaelMSE03:54:565,36 km/h
413REPÉTOSébastienMSE03:54:565,36 km/h
414GUERINPHILIPPEMV103:55:295,35 km/h
415TORTIGUELaurentMSE03:56:145,33 km/h
416DUQUESNEMaëlleFV103:56:295,33 km/h
417ARHANCETMarcMSE03:56:315,33 km/h
418ORFILARichardMSE03:56:315,33 km/h
419TARLETNatachaFV103:57:455,3 km/h
420SOLLINGERMélissaFSE03:58:175,29 km/h
421BUISSONSebastienMV103:58:185,29 km/h
422BRETINSimonMV103:58:345,28 km/h
423HOURDEBAIGTSSylvieFV204:00:225,24 km/h
424LAFOURCADEDominiqueMV104:00:345,24 km/h
425JONETLoicMV104:00:535,23 km/h
426OUGIERLaurentMV204:00:555,23 km/h
427BONNEMAINNicolasMV104:01:585,21 km/h
428GOUBETEmericMSE04:02:415,19 km/h
429CHOCATEricMV204:03:065,18 km/h
430CLAUSTRECédricMV104:03:275,18 km/h
431ROLLANDXavierMSE04:03:365,17 km/h
432BORDENAVEMaylisFV104:03:445,17 km/h
433LEGLISEMathieuMSE04:04:465,15 km/h
434FIEVETCedricMV104:05:025,14 km/h
435CHARRITONJonMSE04:05:145,14 km/h
436LEBLONDBriceMSE04:05:515,13 km/h
437DESFORGESCedricMV104:05:515,13 km/h
438CARREREBORISMSE04:07:135,1 km/h
439LIGOZATSylvainMSE04:07:425,09 km/h
440AJARodolfoMV104:08:365,07 km/h
441BELABDIBernardMV204:09:365,05 km/h
442HERBERTJasonMSE04:11:165,01 km/h
443GELLY AUBERTNicolasMV104:11:225,01 km/h
 Pas de résultats